Location: Clermont
(50.2608°N, 4.3172°E)
Time: 06:58:49
(UTC+00:00)

Helios 1B rocket - Pass Details

Date: 13 August 2020
Orbit: 575 x 583 km, 98.1° (Epoch: 26 September)

Event Time Altitude Azimuth Distance (km) Brightness Sun altitude
Rises 23:40:07 0° 24° (NNE) 2,800 6.9 -25.4°
Reaches altitude 10° 23:42:34 10° 37° (NE) 1,896 5.7 -25.4°
Enters shadow 23:45:18 25° 77° (ENE) 1,200 4.1 -25.5°
